SCP
0 0 0 0 0 0 0 0 0 0 0 0 0 0 0 0 0 0 0 0 0 0 0 0 0 0 0 0 0 0 0 0 0 0 0 0 0 0 0 0 0 0 0 0 0 0 0 0 0
0 0 0 0 0 0 0 0 0 0 0 0 0 0 0 0 0 0 0 0 0 0 0 0 0 0 0 0 0 0 0 0 0 0 0 0 0 0 0 0 0 0 0 0 0 0 0 0 0
0 0 0 0 0 0 0 0 0 0 0 0 0 0 0 0 0 0 0 0 0 0 0 0 0 0 0 0 0 0 0 0 0 0 0 0 0 0 0 0 0 0 0 0 0 0 0 0 0
0 0 0 0 0 0 0 0 0 0 0 0 0 0 0 0 0 0 0 0 0 0 0 0 0 0 0 0 0 0 0 0 0 0 0 0 0 0 0 0 0 0 0 0 0 0 0 0 0
0 0 0 0 0 0 0 0 0 0 0 0 0 0 0 0 0 0 0 0 0 0 0 0 0 0 0 0 0 0 0 0 0 0 0 0 0 0 0 0 0 0 0 0 0 0 0 0 0
0 0 0 0 0 0 0 0 0 0 0 0 0 0 0 0 0 0 0 0 0 0 0 0 0 0 0 0 0 0 0 0 0 0 0 0 0 0 0 0 0 0 0 0 0 0 0 0 0
0 0 0 0 0 0 0 0 0 0 0 0 0 0 0 0 0 0 0 0 0 0 0 0 0 0 0 0 0 0 0 0 0 0 0 0 0 0 0 0 0 0 0 0 0 0 0 0 0
0 0 0 0 0 0 0 0 0 0 0 0 0 0 0 0 0 0 0 0 0 0 0 0 0 0 0 0 0 0 0 0 0 0 0 0 0 0 0 0 0 0 0 0 0 0 0 0 0
0 0 0 0 0 0 0 0 0 0 0 0 0 0 0 0 0 0 0 0 0 0 0 0 0 -0 -0 -0 0 0 0 0 0 0 0 0 0 0 0 0 0 0 0 0 0 0 0 0 0
0 0 0 0 0 0 0 0 0 0 0 0 0 0 0 0 0 0 0 0 0 0 0 -0 -0 -0 -0 -0 -0 -0 -0 -0 -0 -0 -0 -0 -0 -0 0 0 0 0 0 0 0 0 0 0 0
0 0 0 0 0 0 0 0 0 0 0 0 0 0 0 0 0 0 0 0 0 0 0 0 -0 -0 -0 -0 -0 -0 -0 -0 -0 -0 -0 -0 0 0 0 0 0 0 0 0 0 0 0 0 0
0 0 0 0 0 0 0 0 0 0 0 0 0 0 0 0 0 0 0 0 0 0 0 0 0 0 0 0 -0 -0 -0 -0 -0 -0 0 0 0 0 0 0 0 0 0 0 0 0 0 0 0
0 0 0 0 0 0 0 0 0 0 0 0 0 0 0 0 0 0 0 0 0 0 0 0 0 0 0 0 0 0 0 0 0 0 0 0 0 0 0 0 0 0 0 0 0 0 0 0 0
0 0 0 0 0 0 0 0 0 0 0 0 0 0 0 0 0 0 0 0 0 0 0 0 0 0 0 0 0 0 0 0 0 0 0 0 0 0 0 0 0 0 0 0 0 0 0 0 0
0 0 0 0 0 0 0 0 0 0 0 0 0 0 0 0 0 0 0 0 0 0 0 0 0 0 0 0 0 0 0 0 0 0 0 0 0 0 0 0 0 0 0 0 0 0 0 0 0
0 0 0 0 0 0 0 0 0 0 0 0 0 0 0 0 0 0 0 0 0 1 1 0 0 0 0 0 0 0 0 0 0 0 0 0 0 0 0 0 0 0 0 0 0 0 0 0 0
0 0 0 0 0 0 0 0 0 0 0 0 0 0 0 0 0 0 0 0 1 1 1 1 0 0 0 0 0 0 0 0 0 0 0 0 0 0 0 0 0 0 0 0 0 0 0 0 0
0 0 0 0 0 0 0 0 0 0 0 0 0 0 0 0 0 0 1 1 1 1 1 1 1 0 0 0 0 0 0 0 0 0 0 0 0 0 0 0 0 0 0 0 0 0 0 0 0
0 0 0 0 0 0 0 0 0 0 0 0 0 0 0 0 0 1 1 1 1 1 1 1 1 1 0 0 0 0 0 0 0 0 0 0 0 0 0 0 0 0 0 0 0 0 0 0 0
0 0 0 0 0 0 0 0 0 0 0 0 0 0 0 0 1 1 1 1 1 1 1 1 1 1 1 0 0 0 0 0 0 0 0 0 0 0 0 0 0 0 0 0 0 0 0 0 0
0 0 0 0 0 0 0 0 0 0 0 0 0 0 0 1 1 1 1 1 1 1 1 1 1 1 1 1 0 0 0 0 0 0 0 0 0 0 0 0 0 0 0 0 0 0 0 0 0
0 0 0 0 0 0 0 0 0 0 0 0 0 0 0 1 1 1 1 1 1 1 1 1 1 1 1 1 1 0 0 0 0 0 0 0 0 0 0 0 0 0 0 0 0 0 0 0 0
0 0 0 0 0 0 0 0 0 0 0 0 0 0 0 0 1 1 1 1 1 1 1 1 1 1 1 1 1 0 0 0 0 0 0 0 0 0 0 0 0 0 0 0 0 0 0 0 0
0 0 0 0 0 0 0 0 0 0 0 0 0 0 0 1 1 1 1 1 1 1 1 1 1 1 1 1 1 1 0 0 0 0 0 0 0 0 0 0 0 0 0 0 0 0 0 0 0
0 0 0 0 0 0 0 0 0 0 0 0 0 0 0 1 1 1 1 1 1 1 1 1 1 1 1 1 1 1 0 0 0 0 0 0 0 0 0 0 0 0 0 0 0 0 0 0 0
0 0 0 0 0 0 0 0 0 0 0 0 0 0 0 1 1 1 1 1 1 1 2 2 1 1 1 1 1 1 1 0 0 0 0 0 0 0 0 0 0 0 0 0 0 0 0 0 0
0 0 0 0 0 0 0 0 0 0 0 0 0 0 1 1 1 1 1 1 1 1 2 2 2 1 1 1 1 1 1 1 0 0 0 0 0 0 0 0 0 0 0 0 0 0 0 0 0
0 0 0 0 0 0 0 0 0 0 0 1 1 1 1 1 1 1 1 1 1 1 2 2 2 1 1 1 1 1 1 1 0 0 0 0 0 0 0 0 0 0 0 0 0 0 0 0 0
0 0 0 0 0 0 0 0 0 0 0 1 1 1 1 1 1 1 1 1 1 1 1 2 2 1 1 1 1 1 1 1 0 0 0 0 0 0 0 0 0 0 0 0 0 0 0 0 0
0 0 0 0 0 0 0 0 0 0 0 1 1 1 1 1 1 1 1 1 1 1 1 1 1 1 1 1 1 1 1 1 0 0 0 0 0 0 0 0 0 0 0 0 0 0 0 0 0
Wind_Speed
5 4 1 2 5 5 5 4 7 9 8 10 12 11 10 7 6 8 4 11 13 10 8 11 15 15 16 16 16 16 16 17 17 17 17 17 17 17 17 16 16 15 15 15 14 14 13 14 14
3 2 2 4 6 4 3 6 12 12 12 12 12 13 11 9 9 11 7 11 13 10 7 10 15 15 15 15 15 15 16 16 16 16 16 17 16 16 16 15 15 14 14 14 13 13 13 12 12
3 0 4 4 3 3 4 7 13 13 11 9 8 8 7 8 10 8 10 14 11 9 7 10 16 15 15 14 14 14 15 16 16 16 16 16 16 15 15 15 14 14 14 13 13 13 12 12 11
1 4 5 5 2 2 6 9 13 13 11 10 10 8 6 6 7 11 15 15 13 9 7 10 15 15 15 14 14 14 15 15 15 15 15 15 15 15 14 14 13 13 13 12 12 12 11 10 10
3 4 5 3 1 2 6 12 11 10 6 10 12 10 7 6 16 17 16 15 13 9 7 9 15 14 14 14 14 14 14 14 14 15 15 14 14 14 14 13 13 12 12 11 11 10 9 9 8
3 4 4 1 2 4 7 11 13 15 15 13 13 11 6 9 16 15 15 13 12 11 7 8 14 15 14 14 13 14 14 14 14 14 14 13 13 13 12 12 12 11 10 10 9 9 8 7 6
3 4 2 1 3 3 7 8 12 13 13 9 10 9 6 8 11 14 14 12 11 10 8 5 7 10 13 13 13 13 13 13 13 13 13 13 12 12 11 11 11 10 9 8 8 7 6 5 5
4 5 1 1 3 3 6 8 11 14 11 12 8 9 9 11 13 14 12 11 10 8 7 6 5 5 5 7 12 13 13 13 12 12 12 12 11 11 10 9 9 9 8 7 6 6 5 4 4
4 5 1 3 4 4 7 11 8 9 11 7 5 9 14 17 16 15 11 9 8 8 6 6 6 5 5 5 9 10 11 11 10 9 11 9 4 4 5 7 8 8 7 6 5 4 3 2 2
4 4 5 5 5 6 8 11 9 8 11 9 12 13 16 16 16 15 13 11 9 9 7 6 7 6 6 6 5 3 4 5 4 3 4 3 2 2 4 6 7 6 6 4 4 3 2 1 1
3 5 4 4 6 7 7 6 6 11 9 15 20 19 15 15 13 14 13 12 11 10 9 7 7 6 6 4 4 2 2 2 3 4 4 3 2 1 2 1 2 2 3 1 1 1 1 1 1
2 3 4 4 5 6 6 5 6 7 12 16 19 19 15 14 13 12 12 11 10 10 9 8 8 7 6 5 4 4 3 3 3 4 5 3 2 2 2 1 2 1 1 1 1 1 1 1 2
1 2 4 5 6 6 8 7 7 8 14 16 16 15 14 12 10 9 10 9 9 9 9 9 8 7 6 5 4 4 4 4 3 3 4 4 3 3 2 2 2 2 2 2 2 2 2 2 1
2 1 2 4 5 6 10 7 7 9 15 17 16 13 13 12 11 9 10 9 9 9 9 7 8 7 7 5 4 4 4 4 3 3 4 5 3 3 3 2 2 2 2 2 2 2 2 2 1
0 2 2 2 4 5 10 5 6 12 15 16 15 13 12 11 12 12 12 11 10 10 9 8 8 7 7 6 5 4 4 4 4 3 4 4 4 4 3 2 2 2 2 2 1 1 1 1 1
3 4 1 3 4 4 8 4 6 12 14 13 14 13 12 11 11 11 12 10 10 10 9 9 8 7 6 5 4 3 3 4 3 3 3 3 3 3 2 2 2 1 1 1 2 1 1 1 1
4 1 2 3 3 4 6 6 7 10 12 12 12 12 12 11 10 11 12 12 11 11 10 8 7 8 6 5 4 3 3 4 3 3 3 3 3 3 2 2 1 1 1 1 2 2 2 2 1
2 1 2 4 3 4 5 6 8 10 11 11 10 10 11 12 12 12 12 11 10 10 10 9 8 7 6 4 3 2 2 2 3 3 4 4 3 4 3 2 2 1 1 1 1 2 1 2 2
2 1 3 5 3 4 6 7 10 9 9 10 10 9 10 11 10 12 12 12 10 9 9 9 9 7 6 4 3 3 2 2 2 3 5 5 4 4 3 2 2 2 1 2 2 2 1 1 1
3 3 4 5 2 3 5 5 7 9 11 12 12 11 10 7 8 10 11 11 11 11 10 10 10 9 7 5 4 3 3 2 3 3 3 4 4 4 4 3 2 2 1 1 2 2 1 1 1
3 4 4 3 3 2 4 1 3 4 5 7 9 10 11 12 12 12 11 11 10 10 11 11 10 9 8 6 3 2 2 1 1 2 2 3 4 4 3 4 3 3 2 2 3 2 3 2 1
4 5 3 2 2 1 4 2 5 5 5 7 9 9 10 11 11 11 11 11 12 12 11 9 10 9 8 8 6 6 5 4 4 3 3 3 4 5 5 4 4 3 3 3 3 3 3 3 2
6 3 3 2 3 1 2 4 6 2 4 7 8 10 11 12 13 14 14 13 12 11 10 9 9 8 8 8 8 7 5 4 3 3 3 3 3 4 5 5 4 4 3 4 3 3 3 3 3
3 3 5 5 5 1 3 3 4 4 8 7 8 10 12 12 13 13 12 10 9 10 9 9 9 9 8 8 8 8 7 6 5 4 4 3 2 3 4 4 4 4 4 4 4 3 3 3 3
5 7 4 5 4 5 3 3 7 8 7 8 9 11 11 12 11 11 11 11 11 11 11 10 11 9 9 8 8 8 7 7 7 5 5 4 3 3 4 4 4 3 4 4 4 3 3 3 3
4 10 8 5 4 4 2 2 7 7 5 4 5 7 8 9 10 11 12 13 12 12 11 11 11 10 9 9 8 7 7 5 4 5 4 4 3 3 4 3 4 4 4 4 3 2 3 2 3
4 4 9 7 2 1 3 4 7 3 2 1 2 2 5 7 8 9 9 10 11 11 11 11 11 9 9 9 8 6 6 5 5 4 4 3 3 3 4 4 4 3 3 3 3 2 2 2 3
7 7 6 6 4 1 4 2 3 5 2 1 2 3 4 5 7 7 6 8 9 9 8 8 9 9 7 7 7 6 5 5 5 4 4 4 4 3 3 3 3 3 2 3 2 2 2 2 2
3 4 6 5 6 6 1 6 5 6 2 2 1 1 3 5 7 7 6 6 6 7 7 7 7 6 6 6 5 5 4 4 4 4 4 3 3 3 3 3 3 3 2 2 2 2 2 2 2
6 6 8 6 3 5 4 7 5 3 2 3 2 2 3 3 5 6 7 7 6 5 6 6 6 6 5 6 5 5 4 4 4 3 3 3 3 3 3 3 3 3 2 2 2 2 2 2 2
Wind_Direction
297 281 182 71 49 52 75 84 97 84 64 62 71 78 78 62 93 119 130 129 129 125 120 115 114 111 109 107 106 105 104 104 103 103 105 108 109 110 110 111 112 113 113 112 111 110 110 111 113
300 285 65 56 70 69 69 95 91 95 115 105 81 77 71 69 85 111 120 130 129 125 121 120 116 113 112 111 109 108 107 107 106 106 106 109 108 110 111 112 113 114 113 112 112 111 110 110 112
291 95 74 65 78 131 121 109 107 106 107 97 90 67 67 97 109 119 132 134 125 119 118 123 119 117 115 114 112 112 111 110 110 110 110 110 110 110 110 113 114 114 113 112 111 110 110 111 111
11 42 49 69 95 167 133 125 118 107 86 77 91 73 66 97 111 126 133 129 122 118 118 124 120 118 117 117 117 117 115 114 113 113 113 113 113 112 113 113 114 114 115 115 114 112 112 114 113
67 70 53 44 108 125 119 122 116 104 88 88 93 94 79 75 113 125 129 127 124 121 118 123 122 121 120 120 121 121 119 118 117 115 114 113 113 113 114 114 116 116 117 118 117 115 113 113 111
53 68 72 63 82 89 106 118 104 102 109 106 104 103 93 116 124 129 127 126 126 126 121 125 127 125 124 123 123 123 123 122 119 119 118 117 116 117 118 118 119 120 120 121 121 120 116 112 110
113 91 120 160 100 106 134 122 121 125 126 125 125 107 117 132 132 132 129 126 125 125 123 118 123 127 128 127 127 127 127 124 122 124 124 123 122 121 121 122 123 124 125 126 128 127 123 116 112
137 100 88 105 120 133 134 120 132 130 120 129 129 125 144 152 134 128 126 125 126 127 129 125 120 118 120 124 131 132 130 128 129 130 130 131 130 129 127 125 128 131 134 136 139 137 134 131 122
102 81 154 181 150 141 128 114 119 113 122 135 116 124 141 138 131 129 126 124 133 137 140 139 136 132 130 135 137 135 134 136 135 136 138 131 120 123 130 139 140 140 144 150 154 157 156 142 124
98 131 202 191 159 137 137 129 127 112 113 105 107 116 131 134 136 139 143 147 150 154 159 156 152 152 153 149 131 133 137 136 135 137 136 130 139 154 153 152 152 154 159 166 178 184 180 143 117
147 179 191 176 156 136 134 122 113 123 135 146 142 144 145 141 143 147 151 156 161 164 166 165 165 164 162 142 146 148 140 146 153 160 160 154 149 153 142 139 157 171 181 192 221 210 215 187 161
173 201 169 165 146 132 139 126 114 132 158 154 148 148 148 149 153 154 155 157 157 160 166 167 168 167 163 152 159 159 156 161 169 174 170 158 155 159 162 172 189 199 203 205 221 216 216 212 198
165 171 164 162 149 136 119 118 116 122 135 141 144 147 152 154 155 155 154 156 154 156 160 162 160 160 155 152 164 162 167 169 173 167 167 162 162 169 176 186 194 206 201 197 201 207 213 218 190
222 181 123 134 137 134 122 118 105 133 140 147 153 157 160 160 161 158 155 162 162 160 160 156 150 152 149 153 158 159 167 167 163 161 165 166 162 164 170 174 184 203 203 200 195 193 198 196 164
69 88 54 150 143 143 115 91 138 150 150 155 163 166 166 168 167 168 168 167 167 163 158 155 152 149 147 150 157 155 162 158 161 172 170 164 162 164 163 158 179 203 193 191 186 178 154 160 158
26 55 51 240 157 154 115 149 176 158 155 160 168 174 174 178 177 174 170 166 165 162 160 164 160 154 152 152 151 150 155 157 165 169 160 157 158 160 152 158 188 199 175 162 164 165 148 153 158
17 96 226 260 202 151 125 165 182 164 160 165 172 176 177 179 182 177 173 169 168 166 164 166 158 160 160 158 154 154 154 160 160 157 158 163 171 175 159 177 199 184 158 162 181 171 163 167 180
229 209 241 234 234 137 133 169 172 167 162 170 174 178 179 184 184 177 174 170 168 168 166 166 162 166 160 150 141 132 135 156 156 160 171 171 178 178 169 183 197 178 147 148 146 155 153 166 176
209 258 266 258 219 136 159 169 177 169 169 173 176 182 189 192 181 172 172 171 168 169 169 169 167 172 163 155 156 156 173 176 169 179 182 181 184 181 176 183 181 171 167 183 173 153 150 181 137
232 252 276 295 281 135 166 191 184 170 184 184 181 186 188 184 172 173 173 174 176 177 176 174 174 175 175 174 168 165 165 180 182 184 188 193 187 183 184 182 182 184 178 183 185 162 146 183 137
243 207 239 259 332 47 115 348 215 206 195 191 182 180 179 180 178 177 177 180 179 183 183 184 181 177 179 173 155 147 120 99 150 190 200 208 190 185 189 185 178 185 184 198 205 183 169 185 210
243 231 209 214 95 286 135 177 256 223 210 204 193 179 184 184 179 179 184 187 189 190 184 185 183 178 179 173 172 171 178 189 201 193 197 209 199 189 186 185 187 189 189 201 208 195 181 170 193
214 204 162 177 138 33 8 131 263 223 222 228 207 195 194 189 181 184 188 191 192 189 181 182 180 180 182 180 179 181 189 195 189 182 190 206 213 204 194 190 186 190 193 200 204 195 184 175 182
169 76 40 44 67 14 257 144 258 229 214 215 208 200 198 189 185 189 187 178 184 185 179 178 179 187 188 185 183 186 190 188 181 189 192 204 222 220 211 199 192 199 199 202 206 201 192 192 193
99 88 43 13 21 251 263 146 242 247 225 203 198 197 194 187 182 184 181 177 181 185 183 180 182 189 191 189 189 192 193 188 191 193 195 196 206 216 221 207 198 203 205 204 203 200 206 198 199
165 133 149 173 206 275 340 211 251 252 240 208 186 190 186 183 183 187 188 185 185 185 182 181 184 188 191 192 193 193 191 188 193 193 190 197 200 210 212 205 201 200 200 205 198 201 207 202 209
157 157 161 135 157 60 306 297 309 319 12 55 114 143 181 186 183 181 181 182 181 182 182 182 183 186 190 191 188 188 187 185 189 188 184 193 201 208 204 201 198 199 199 200 187 197 210 205 212
162 155 99 109 133 191 310 304 273 300 314 43 103 157 162 159 164 161 171 177 177 177 173 172 179 186 183 181 182 183 182 186 186 180 187 194 199 197 186 195 193 189 193 196 187 197 213 205 227
149 125 116 122 147 147 208 270 232 220 209 132 137 141 151 154 155 157 160 161 161 156 157 164 169 169 168 169 167 169 170 177 175 180 190 190 188 179 176 178 170 169 176 181 180 201 201 206 231
163 167 141 146 201 151 157 259 276 213 192 134 115 108 117 116 139 148 148 142 132 139 149 154 156 159 163 162 160 166 166 169 174 182 188 183 176 172 164 159 160 168 171 177 184 211 210 202 225